Thomasville, GA

1:34 PM EST on December 15, 2017 (GMT -0500)
Thomasville Municipal

Weather History for KTVI - January, 2013

Change the Weather History Date:

Thursday, January 17, 2013

  Actual Average (KMUL) Record (KMUL)
Temperature  
Mean Temperature 54 °F -  
Max Temperature 68 °F 59 °F 81 °F (1943)
Min Temperature 41 °F 37 °F 13 °F (1977)
Degree Days  
Heating Degree Days 10    
Growing Degree Days 4 (Base 50)    
Moisture  
Dew Point 48 °F    
Average Humidity 79    
Maximum Humidity 100    
Minimum Humidity 51    
Precipitation  
Precipitation 0.00 in - - ()
Sea Level Pressure  
Sea Level Pressure 30.01 in    
Wind  
Wind Speed 9 mph (WSW)    
Max Wind Speed 21 mph    
Max Gust Speed 30 mph    
Visibility 9 miles    
Events Rain    
Averages and records for this station are not official NWS values.
T = Trace of Precipitation, MM = Missing Value Source: NWS Daily Summary

Daily Weather History Graph

Daily Weather History Graph

Search for Another Location

Airport or City:

Trip Planner

Search our weather history database for the weather conditions in past years. The results will help you decide how hot, cold, wet, or windy it might be!

Date:

Astronomy

Jan. 17, 2013 Rise Set
Actual Time 7:33 AM EST 5:58 PM EST
Civil Twilight 7:07 AM EST 6:24 PM EST
Nautical Twilight 6:38 AM EST 6:53 PM EST
Astronomical Twilight 6:09 AM EST 7:22 PM EST
Moon 11:09 AM EST (1/17) No Moon Set
Length of Visible Light 11h 16m
Length of Day
10h 24m
Waxing Crescent, 37% of the Moon is Illuminated
Jan 17
Waxing Crescent
Jan 18
First Quarter
Jan 26
Full
Feb 3
Last Quarter
Feb 10
New

Hourly Weather History & Observations

Time (EST) Temp. Windchill Dew Point Humidity Pressure Visibility Wind Dir Wind Speed Gust Speed Precip Events Conditions
12:15 AM 64.4 °F - 64.4 °F 100% 29.98 in 7.0 mi South 4.6 mph - N/A   Overcast
12:35 AM 66.2 °F - 64.4 °F 94% 29.97 in 7.0 mi South 3.5 mph - N/A   Overcast
12:55 AM 68.0 °F - 64.4 °F 88% 29.97 in 10.0 mi SSW 6.9 mph - N/A   Overcast
1:15 AM 68.0 °F - 64.4 °F 88% 29.97 in 10.0 mi South 6.9 mph - N/A   Light Drizzle
1:35 AM 68.0 °F - 64.4 °F 88% 29.97 in 10.0 mi South 6.9 mph - N/A   Overcast
1:55 AM 66.2 °F - 64.4 °F 94% 29.97 in 7.0 mi South 5.8 mph - N/A   Overcast
2:15 AM 66.2 °F - 64.4 °F 94% 29.97 in 10.0 mi SSW 5.8 mph - N/A   Overcast
2:35 AM 68.0 °F - 64.4 °F 88% 29.96 in 7.0 mi SSW 8.1 mph - N/A   Overcast
2:55 AM 68.0 °F - 64.4 °F 88% 29.95 in 10.0 mi South 10.4 mph - N/A   Overcast
3:15 AM 68.0 °F - 66.2 °F 94% 29.95 in 10.0 mi SW 6.9 mph - N/A   Overcast
3:55 AM 68.0 °F - 64.4 °F 88% 29.94 in 10.0 mi WSW 5.8 mph - N/A   Overcast
4:15 AM 66.2 °F - 64.4 °F 94% 29.94 in 7.0 mi SW 4.6 mph - N/A Rain Heavy Rain
4:35 AM 66.2 °F - 64.4 °F 94% 29.93 in 10.0 mi SW 4.6 mph - N/A   Light Drizzle
4:55 AM 64.4 °F - 64.4 °F 100% 29.93 in 10.0 mi SW 5.8 mph - N/A   Overcast
5:15 AM 66.2 °F - 62.6 °F 88% 29.92 in 10.0 mi SSW 4.6 mph - N/A   Overcast
5:35 AM 66.2 °F - 62.6 °F 88% 29.92 in 10.0 mi SW 10.4 mph 16.1 mph N/A   Overcast
5:55 AM 66.2 °F - 62.6 °F 88% 29.93 in 10.0 mi SSW 8.1 mph - N/A   Overcast
6:15 AM 64.4 °F - 62.6 °F 94% 29.93 in 10.0 mi SSW 8.1 mph - N/A   Overcast
6:35 AM 66.2 °F - 62.6 °F 88% 29.92 in 10.0 mi SSW 9.2 mph - N/A   Overcast
6:55 AM 66.2 °F - 62.6 °F 88% 29.92 in 10.0 mi WSW 10.4 mph 17.3 mph N/A   Overcast
7:15 AM 64.4 °F - 62.6 °F 94% 29.93 in 10.0 mi SW 11.5 mph 19.6 mph N/A   Overcast
7:35 AM 64.4 °F - 60.8 °F 88% 29.94 in 4.0 mi West 18.4 mph 28.8 mph N/A Rain Rain
7:55 AM 59.0 °F - 57.2 °F 94% 29.96 in 1.5 mi WSW 15.0 mph 20.7 mph N/A   Drizzle
8:15 AM 59.0 °F - 55.4 °F 88% 29.97 in 10.0 mi WSW 15.0 mph 20.7 mph N/A   Overcast
8:35 AM 57.2 °F - 55.4 °F 94% 29.97 in 10.0 mi WSW 11.5 mph 16.1 mph N/A   Overcast
8:55 AM 55.4 °F - 53.6 °F 94% 29.99 in 7.0 mi WSW 12.7 mph 18.4 mph N/A   Overcast
9:15 AM 55.4 °F - 51.8 °F 88% 29.99 in 10.0 mi West 11.5 mph 19.6 mph N/A   Overcast
9:35 AM 55.4 °F - 51.8 °F 88% 30.00 in 10.0 mi West 12.7 mph 16.1 mph N/A   Overcast
9:55 AM 51.8 °F - 50.0 °F 94% 30.02 in 3.0 mi West 16.1 mph 20.7 mph N/A   Drizzle
10:15 AM 51.8 °F - 50.0 °F 94% 30.02 in 3.0 mi West 11.5 mph 18.4 mph N/A   Overcast
10:35 AM 50.0 °F - 48.2 °F 94% 30.03 in 2.0 mi West 13.8 mph 19.6 mph N/A   Drizzle
10:55 AM 50.0 °F - 46.4 °F 87% 30.03 in 5.0 mi WNW 12.7 mph 19.6 mph N/A   Overcast
11:15 AM 46.4 °F 41.1 °F 46.4 °F 100% 30.02 in 2.5 mi West 11.5 mph 21.9 mph N/A   Overcast
11:35 AM 50.0 °F - 46.4 °F 87% 30.01 in 10.0 mi WSW 9.2 mph 17.3 mph N/A   Overcast
11:55 AM 50.0 °F - 44.6 °F 82% 30.01 in 10.0 mi WSW 11.5 mph 20.7 mph N/A   Overcast
12:15 PM 51.8 °F - 44.6 °F 76% 30.00 in 7.0 mi WSW 12.7 mph 18.4 mph N/A   Overcast
12:35 PM 51.8 °F - 42.8 °F 71% 29.99 in 10.0 mi WSW 15.0 mph 27.6 mph N/A   Mostly Cloudy
12:55 PM 53.6 °F - 41.0 °F 62% 29.99 in 10.0 mi West 17.3 mph 27.6 mph N/A   Scattered Clouds
1:15 PM 55.4 °F - 39.2 °F 54% 29.97 in 10.0 mi WSW 20.7 mph 26.5 mph N/A   Scattered Clouds
1:35 PM 55.4 °F - 37.4 °F 51% 29.96 in 10.0 mi West 15.0 mph 28.8 mph N/A   Scattered Clouds
1:55 PM 55.4 °F - 37.4 °F 51% 29.96 in 10.0 mi WSW 19.6 mph 29.9 mph N/A   Clear
2:15 PM 55.4 °F - 37.4 °F 51% 29.96 in 10.0 mi West 15.0 mph 28.8 mph N/A   Scattered Clouds
2:35 PM 53.6 °F - 35.6 °F 51% 29.97 in 10.0 mi West 13.8 mph 27.6 mph N/A   Clear
2:55 PM 53.6 °F - 35.6 °F 51% 29.97 in 10.0 mi West 15.0 mph 26.5 mph N/A   Clear
3:15 PM 51.8 °F - 35.6 °F 54% 29.98 in 10.0 mi West 13.8 mph 26.5 mph N/A   Scattered Clouds
3:35 PM 51.8 °F - 35.6 °F 54% 29.99 in 10.0 mi West 17.3 mph 28.8 mph N/A   Scattered Clouds
3:55 PM 51.8 °F - 35.6 °F 54% 30.00 in 7.0 mi West 12.7 mph 25.3 mph N/A   Scattered Clouds
4:15 PM 48.2 °F - 33.8 °F 58% 30.02 in 10.0 mi WNW 16.1 mph 26.5 mph N/A   Mostly Cloudy
4:35 PM 46.4 °F 40.4 °F 33.8 °F 62% 30.04 in 10.0 mi West 13.8 mph 23.0 mph N/A   Mostly Cloudy
4:55 PM 44.6 °F 37.8 °F 32.0 °F 61% 30.05 in 10.0 mi WNW 15.0 mph 21.9 mph N/A   Overcast
5:35 PM 42.8 °F 37.0 °F 32.0 °F 66% 30.07 in 7.0 mi WNW 10.4 mph 19.6 mph N/A   Overcast
5:55 PM 42.8 °F 36.2 °F 32.0 °F 66% 30.09 in 10.0 mi West 12.7 mph 20.7 mph N/A   Overcast
6:15 PM 41.0 °F 36.4 °F 32.0 °F 70% 30.09 in 10.0 mi WNW 6.9 mph 20.7 mph N/A   Overcast
6:35 PM 41.0 °F 34.3 °F 32.0 °F 70% 30.11 in 10.0 mi WNW 11.5 mph 23.0 mph N/A   Overcast
6:55 PM 41.0 °F 35.8 °F 32.0 °F 70% 30.12 in 10.0 mi WNW 8.1 mph 24.2 mph N/A   Overcast
7:15 PM 41.0 °F 36.4 °F 32.0 °F 70% 30.14 in 10.0 mi WNW 6.9 mph 27.6 mph N/A   Overcast
7:35 PM 41.0 °F 34.3 °F 32.0 °F 70% 30.14 in 10.0 mi NW 11.5 mph 21.9 mph N/A   Overcast
7:55 PM 41.0 °F 33.9 °F 32.0 °F 70% 30.15 in 10.0 mi NW 12.7 mph 18.4 mph N/A   Overcast
8:15 PM 41.0 °F 35.2 °F 32.0 °F 70% 30.16 in 10.0 mi NW 9.2 mph 20.7 mph N/A   Overcast
8:55 PM 41.0 °F 34.3 °F 32.0 °F 70% 30.17 in 10.0 mi NNW 11.5 mph 21.9 mph N/A   Overcast
9:15 PM 41.0 °F 32.8 °F 32.0 °F 70% 30.18 in 10.0 mi NNW 16.1 mph 25.3 mph N/A   Overcast
9:35 PM 41.0 °F 33.9 °F 32.0 °F 70% 30.18 in 10.0 mi NNW 12.7 mph 21.9 mph N/A   Overcast
10:15 PM 41.0 °F 33.9 °F 33.8 °F 76% 30.19 in 10.0 mi NNW 12.7 mph 17.3 mph N/A   Overcast
10:35 PM 41.0 °F 34.7 °F 33.8 °F 76% 30.19 in 10.0 mi NNW 10.4 mph - N/A   Overcast
11:55 PM 42.8 °F 37.0 °F 35.6 °F 76% 30.21 in 10.0 mi NNW 10.4 mph - N/A   Overcast